Regional Weather Roundup
Issued by NWS

Home | Current Version | Previous Version | Text Only | Print | Product List | Glossary Off
Versions: 1 2 3 4 5 6 7 8 9 10 11 12 13 14 15 16 17 18 19 20 21 22 23 24 25 26 27 28 29 30 31 32 33 34 35 36 37 38 39 40 41 42 43 44 45 46 47 48 49 50

000
ASUS43 KIND 271159
RWRIN

WEATHER ROUNDUP FOR INDIANA
NATIONAL WEATHER SERVICE INDIANAPOLIS IN
800 AM EDT THU APR 27 2017

NOTE: "FAIR" INDICATES FEW OR NO CLOUDS BELOW 12,000 FEET WITH NO
SIGNIFICANT WEATHER AND/OR OBSTRUCTIONS TO VISIBILITY.

* - STATION DOES NOT REPORT WEATHER SUCH AS PRECIPITATION OR FOG.

+ - STATION NOT QUALITY CONTROLLED BY THE NATIONAL WEATHER SERVICE.
    USE DATA WITH CAUTION...ESPECIALLY DEWPOINT AND RELATIVE
    HUMIDITY OBSERVATIONS.

INZ001>003-010>013-019-020-271300-
NORTHWEST INDIANA

CITY           SKY/WX    TMP DP  RH WIND       PRES   REMARKS
GARY /AIRPORT/ CLOUDY    61  55  82 S14G32    29.33R
KNOX *+        CLOUDY    61  37  41 S30G39    29.39R
MONTICELLO +   CLOUDY    61  55  80 SW20G32   29.44R
6HR MIN TEMP:  59; 6HR MAX TEMP:  62;


$$

LMZ046-743>745-271300-
SOUTHERN LAKE MICHIGAN

STATION/POSITION TIME  TEMP    WIND        PRES    WAVE
                       AIR SEA DIR/SP/G            HT
                 (UTC) (F)     (DEG/KT/KT) (MB)    (FT)
BURNS HARBOR     1140   60     180/ 19/ 31  993.6F
MICHIGAN CITY    1130   60     170/ 20/ 25   N/A
5NW MICH CITY    1150   58 49                N/A     2

$$

INZ004-005-014>016-021>024-271300-
NORTH CENTRAL INDIANA

CITY           SKY/WX    TMP DP  RH WIND       PRES   REMARKS
GOSHEN         CLOUDY    63  52  67 S23G33    29.43R
6HR MIN TEMP:  60; 6HR MAX TEMP:  63; 6HR PCP:  0.01;

PERU/GRISSOM   PTSUNNY   61  57  88 S24G33    29.46R
SOUTH BEND     CLOUDY    61  54  77 S25G33    29.39S
6HR MIN TEMP:  58; 6HR MAX TEMP:  61; 6HR PCP: TRACE;


$$

INZ006>009-017-018-025>027-271300-
NORTHEAST INDIANA

CITY           SKY/WX    TMP DP  RH WIND       PRES   REMARKS
ANGOLA *+      MOSUNNY   63  54  72 S16       29.46R
FORT WAYNE     PTSUNNY   64  53  67 S23G29    29.49R
6HR MIN TEMP:  60; 6HR MAX TEMP:  69; 6HR PCP: TRACE;

KENDALLVILLE + PTSUNNY   63  54  73 S18G25    29.47R

$$

INZ028-029-035-036-043>045-051>053-271300-
WEST CENTRAL INDIANA

CITY           SKY/WX    TMP DP  RH WIND       PRES   REMARKS
CRAWFORDSVL +  CLOUDY    50  50 100 SW16G24   29.53R
6HR MIN TEMP:  50; 6HR MAX TEMP:  58; 6HR PCP:  0.04;

GREENCASTLE +  LGT RAIN  55  54  94 SW8       29.54R
LAFAYETTE      CLOUDY    53  50  89 SW17G30   29.49R
6HR MIN TEMP:  53; 6HR MAX TEMP:  61;

TERRE HAUTE    CLOUDY    52  48  86 W12       29.57R
6HR MIN TEMP:  51; 6HR MAX TEMP:  61; 6HR PCP:  0.09;


$$

INZ030>032-037>040-046>048-054>057-064-065-271300-
CENTRAL INDIANA

CITY           SKY/WX    TMP DP  RH WIND       PRES   REMARKS
COLUMBUS       PTSUNNY   59  54  82 S8        29.54S
INDIANAPOLIS   PTSUNNY   61  56  83 S20G26    29.50R
6HR MIN TEMP:  59; 6HR MAX TEMP:  64; 6HR PCP:  0.12;

-EAGLE CREEK   PTSUNNY   62  55  77 SW13G22   29.50R
6HR MIN TEMP:  60; 6HR MAX TEMP:  65; 6HR PCP:  0.06;

KOKOMO +       CLOUDY    61  55  81 S23G29    29.49R
6HR MIN TEMP:  59; 6HR MAX TEMP:  64; 6HR PCP:  0.01;

SHELBYVILLE    CLOUDY    64  54  69 S14       29.53S
6HR MIN TEMP:  62; 6HR MAX TEMP:  73; 6HR PCP:  0.01;


$$

INZ033-034-041-042-049-050-058-059-271300-
EAST CENTRAL INDIANA

CITY           SKY/WX    TMP DP  RH WIND       PRES   REMARKS
MUNCIE         CLOUDY    65  53  65 S13G28    29.52R
6HR MIN TEMP:  63; 6HR MAX TEMP:  73;

RICHMOND +     PTSUNNY   61  52  72 S12       29.57R

$$

INZ060-061-067>069-081>083-085>088-271300-
SOUTHWEST INDIANA

CITY           SKY/WX    TMP DP  RH WIND       PRES   REMARKS
EVANSVILLE     CLOUDY    53  49  86 W9G17     29.63R
6HR MIN TEMP:  53; 6HR MAX TEMP:  63; 6HR PCP:  0.13;

HUNTINGBURG *+ CLOUDY    54  52  93 W14       29.60R
6HR MIN TEMP:  54; 6HR MAX TEMP:  62; 6HR PCP:  0.11;


$$

INZ062-063-066-070>080-084-089>092-271300-
SOUTH CENTRAL AND SOUTHEAST INDIANA

CITY           SKY/WX    TMP DP  RH WIND       PRES   REMARKS
BLOOMINGTON    CLOUDY    61  55  81 W17G25    29.54R
6HR MIN TEMP:  59; 6HR MAX TEMP:  63; 6HR PCP:  0.15;

MADISON *+     CLOUDY    61  57  88 S13       29.60R
SEYMOUR +      CLOUDY    61  57  88 S8        29.56R

$$





USA.gov is the U.S. government's official web portal to all federal, state and local government web resources and services.